Flag for Greece Weather past 2 weeks in Keratsini, Greece

Now
59 °F

Partly sunny.


Feels Like: 58 °F
Forecast: 40 / 47 °F
Wind: 8 mph from West

Location: Elefsis Airport

Current Time: Dec 29, 2014 at 4:40:46 PM

Latest Report: Dec 29, 2014 at 3:50 PM


Visibility: N/A

Pressure: 29.77 "Hg

Humidity: 45%

Dew point: 37 °F

Location of KeratsiniLocation

Historic Weather in Keratsini — Graph

°F

Keratsini temperature yesterday

Maximum temperature yesterday: 59 °F (at 6:50 PM)
Minimum temperature yesterday: 36 °F (at 3:50 AM)
Average temperature yesterday: 49 °F

Past Weeks' High & Low Weather Summary

 TemperatureHumidityPressure
High64 °F (Dec 20, 3:20 PM)100% (Dec 27, 2:50 AM)30.42 "Hg (Dec 27, 2:50 AM)
Low36 °F (Dec 23, 4:20 AM)34% (Dec 23, 1:50 PM)29.56 "Hg (Dec 29, 4:20 AM)
Average52 °F74%30.09 "Hg
* Reported Dec 14 3:20 PM — Dec 29 3:20 PM, Keratsini, Weather by CustomWeather, © 2014

Note: Actual official high and low records may vary slightly from our data, if they occured in-between our weather recording intervals... More about our weather records

Advertising

Keratsini weather history for previous 24 hours

 ConditionsComfort  
Time TempWeatherWind HumidityBarometerVisibility
3:20 PM
Dec 29
59 °FScattered clouds.17 mph48%29.77 "HgN/A
2:50 PM59 °FPassing clouds.13 mph48%29.74 "HgN/A
2:20 PM61 °FPassing clouds.9 mph42%29.74 "HgN/A
1:50 PM61 °FPassing clouds.6 mph48%29.74 "HgN/A
1:20 PM61 °FScattered clouds.10 mph48%29.74 "HgN/A
12:50 PM61 °FScattered clouds.12 mph39%29.74 "HgN/A
12:20 PM63 °FScattered clouds.13 mph34%29.71 "HgN/A
11:50 AM61 °FScattered clouds.18 mph36%29.71 "HgN/A
11:20 AM63 °FScattered clouds.6 mph42%29.71 "HgN/A
10:50 AM61 °FScattered clouds.5 mph55%29.71 "HgN/A
10:20 AM57 °FScattered clouds.6 mph67%29.71 "HgN/A
9:50 AM54 °FScattered clouds.7 mph77%29.68 "HgN/A
9:20 AM50 °FScattered clouds.7 mph82%29.68 "HgN/A
8:50 AM50 °FScattered clouds.9 mph82%29.65 "HgN/A
8:20 AM50 °FScattered clouds.5 mph82%29.65 "HgN/A
7:50 AM52 °FScattered clouds.5 mph77%29.65 "HgN/A
7:20 AM52 °FPassing clouds.7 mph77%29.62 "HgN/A
6:50 AM55 °FPassing clouds.6 mph67%29.59 "HgN/A
6:20 AM57 °FPassing clouds.12 mph59%29.59 "HgN/A
5:50 AM59 °FPassing clouds.12 mph59%29.59 "HgN/A
5:20 AM57 °FPartly cloudy.14 mph72%29.59 "HgN/A
4:50 AM57 °FPartly cloudy.12 mph72%29.56 "HgN/A
4:20 AM57 °FPartly cloudy.12 mph72%29.56 "HgN/A
3:50 AM57 °FLight rain. Partly cloudy.12 mph72%29.59 "HgN/A
3:20 AM59 °FPartly cloudy.13 mph63%29.59 "HgN/A
2:50 AM59 °FPartly cloudy.15 mph63%29.59 "HgN/A
2:20 AM59 °FPartly cloudy.17 mph63%29.59 "HgN/A
1:50 AM59 °FPartly cloudy.15 mph63%29.59 "HgN/A
12:50 AM57 °FPartly cloudy.No wind72%29.59 "HgN/A
12:20 AM57 °FPartly cloudy.No wind72%29.62 "HgN/A
11:50 PM
Dec 28
55 °FPartly cloudy.No wind82%29.62 "HgN/A
11:20 PM55 °FPartly cloudy.No wind82%29.65 "HgN/A
10:50 PM55 °FPartly cloudy.No wind82%29.65 "HgN/A
10:20 PM57 °FPartly cloudy.No wind77%29.65 "HgN/A
9:50 PM57 °FPartly cloudy.No wind77%29.65 "HgN/A
9:20 PM57 °FLight rain. Mostly cloudy.9 mph82%29.65 "HgN/A
8:50 PM57 °FLight rain. Mostly cloudy.16 mph82%29.68 "HgN/A
8:20 PM57 °FPartly cloudy.12 mph77%29.71 "HgN/A
7:50 PM59 °FPartly cloudy.14 mph72%29.71 "HgN/A
7:20 PM59 °FPassing clouds.15 mph72%29.71 "HgN/A
6:50 PM59 °FPassing clouds.17 mph68%29.74 "HgN/A
6:20 PM57 °FPassing clouds.12 mph72%29.74 "HgN/A
5:50 PM57 °FPassing clouds.14 mph72%29.74 "HgN/A
5:20 PM57 °FMostly cloudy.9 mph63%29.74 "HgN/A
4:50 PM57 °FPartly sunny.9 mph63%29.77 "HgN/A
4:20 PM55 °FPartly sunny.7 mph63%29.77 "HgN/A
Weather by CustomWeather, © 2014

See weather overviewHow to use our weather pages